Location: Ariel
(45.9570°N, 122.5700°W)
Time: 20:32:57
(UTC-07:00)

Transit 4A - Pass Details

Date: 21 July 2019
Orbit: 863 x 981 km, 66.8° (Epoch: 24 August)

Event Time Altitude Azimuth Distance (km) Brightness Sun altitude
Rises 08:11:20 0° 323° (NW) 3,691 10.7 23.9°
Reaches altitude 10° 08:15:39 10° 350° (N) 2,731 10.4 24.6°
Maximum altitude 08:18:31 13° 17° (NNE) 2,496 10.5 25.1°
Drops below altitude 10° 08:21:21 10° 44° (NE) 2,705 11.2 25.6°
Sets 08:25:35 0° 71° (ENE) 3,625 12.2 26.3°
